| time (UTC) | temp C | wind direction | speed KPH | gust KPH | rain 1hr cm | rain 24hr cm | rain mn cm | humidity % | barometer mb |
| 20260506073128 | 3 | 351 | 9.7 | 19.3 | 0.00 | 0.00 | 0.00 | 73 | 1008.9 |
| 20260506072628 | 3 | 350 | 8.0 | 19.3 | 0.00 | 0.00 | 0.00 | 74 | 1007.7 |
| 20260506071612 | 3 | 352 | 8.0 | 19.3 | 0.00 | 0.00 | 0.00 | 74 | 1008.6 |
| 20260506071112 | 3 | 353 | 8.0 | 19.3 | 0.00 | 0.00 | 0.00 | 75 | 1008.7 |
| 20260506070611 | 3 | 347 | 11.3 | 19.3 | 0.00 | 0.00 | 0.00 | 75 | 1008.9 |
| 20260506070110 | 3 | 347 | 12.9 | 19.3 | 0.00 | 0.00 | 0.00 | 76 | 1008.8 |
| 20260506062053 | 2 | 339 | 8.0 | 19.3 | 0.00 | 0.00 | 0.00 | 84 | 1008.7 |
| 20260506061552 | 2 | 347 | 8.0 | 19.3 | 0.00 | 0.00 | 0.00 | 84 | 1008.8 |
| 20260506061052 | 2 | 343 | 8.0 | 19.3 | 0.00 | 0.00 | 0.00 | 85 | 1008.6 |
| 20260506060553 | 2 | 349 | 8.0 | 19.3 | 0.00 | 0.00 | 0.00 | 85 | 1008.6 |
| 20260506050505 | 2 | 349 | 6.4 | 19.3 | 0.00 | 0.00 | 0.00 | 85 | 1009.0 |
| 20260506045005 | 2 | 343 | 4.8 | 19.3 | 0.00 | 0.00 | 0.00 | 86 | 1008.7 |
| 20260506043950 | 2 | 342 | 6.4 | 19.3 | 0.00 | 0.00 | 0.00 | 84 | 1008.5 |
| 20260506043450 | 2 | 354 | 4.8 | 19.3 | 0.00 | 0.00 | 0.00 | 82 | 1008.4 |
| 20260506042950 | 2 | 352 | 4.8 | 19.3 | 0.00 | 0.00 | 0.00 | 80 | 1008.5 |
| 20260506042449 | 2 | 354 | 3.2 | 19.3 | 0.00 | 0.00 | 0.00 | 78 | 1008.6 |
| 20260506041948 | 2 | 353 | 1.6 | 19.3 | 0.00 | 0.00 | 0.00 | 77 | 1008.6 |
| 20260506041448 | 2 | 343 | 3.2 | 19.3 | 0.00 | 0.00 | 0.00 | 77 | 1008.5 |
| 20260506040432 | 3 | 338 | 3.2 | 19.3 | 0.00 | 0.00 | 0.00 | 76 | 1008.5 |
| 20260506035931 | 3 | 336 | 3.2 | 19.3 | 0.00 | 0.00 | 0.00 | 77 | 1008.4 |
| 20260506035431 | 3 | 331 | 3.2 | 19.3 | 0.00 | 0.00 | 0.00 | 78 | 1008.4 |
| 20260506034416 | 3 | 329 | 1.6 | 19.3 | 0.00 | 0.00 | 0.00 | 80 | 1008.3 |
| 20260506033916 | 2 | 329 | 1.6 | 19.3 | 0.00 | 0.00 | 0.00 | 82 | 1008.5 |
| 20260506033415 | 2 | 265 | 1.6 | 19.3 | 0.00 | 0.00 | 0.00 | 84 | 1008.1 |
| 20260506032915 | 2 | 265 | 0.0 | 19.3 | 0.00 | 0.00 | 0.00 | 85 | 1008.1 |
| 20260506032414 | 2 | 265 | 0.0 | 19.3 | 0.00 | 0.00 | 0.00 | 86 | 1008.2 |
| 20260506031912 | 1 | 233 | 0.0 | 19.3 | 0.00 | 0.00 | 0.00 | 87 | 1007.9 |
| 20260506031412 | 1 | 233 | 0.0 | 19.3 | 0.00 | 0.00 | 0.00 | 86 | 1007.9 |
| 20260506030911 | 2 | 233 | 0.0 | 19.3 | 0.00 | 0.00 | 0.00 | 85 | 1008.1 |
| 20260506030410 | 2 | 233 | 0.0 | 19.3 | 0.00 | 0.00 | 0.00 | 84 | 1008.1 |
| 20260506025908 | 2 | 233 | 0.0 | 19.3 | 0.00 | 0.00 | 0.00 | 83 | 1008.1 |
| 20260506025409 | 2 | 233 | 0.0 | 19.3 | 0.00 | 0.00 | 0.00 | 81 | 1008.2 |
| 20260506024908 | 2 | 233 | 0.0 | 19.3 | 0.00 | 0.00 | 0.00 | 81 | 1008.2 |
| 20260506024408 | 2 | 194 | 0.0 | 19.3 | 0.00 | 0.00 | 0.00 | 82 | 1008.1 |
| 20260506023907 | 2 | 194 | 0.0 | 19.3 | 0.00 | 0.00 | 0.00 | 81 | 1008.2 |
| 20260506023407 | 2 | 194 | 0.0 | 19.3 | 0.00 | 0.00 | 0.00 | 82 | 1008.0 |
| 20260506022907 | 2 | 194 | 0.0 | 19.3 | 0.00 | 0.00 | 0.00 | 81 | 1007.9 |
| 20260506022407 | 2 | 194 | 0.0 | 19.3 | 0.00 | 0.00 | 0.00 | 81 | 1007.9 |
| 20260506021907 | 2 | 194 | 0.0 | 19.3 | 0.00 | 0.00 | 0.00 | 80 | 1007.9 |
| 20260506021407 | 2 | 194 | 0.0 | 19.3 | 0.00 | 0.00 | 0.00 | 81 | 1007.9 |
| 20260506020906 | 2 | 194 | 0.0 | 19.3 | 0.00 | 0.00 | 0.00 | 82 | 1007.8 |
| 20260506020405 | 2 | 194 | 0.0 | 19.3 | 0.00 | 0.00 | 0.00 | 82 | 1007.9 |
| 20260506015904 | 2 | 194 | 0.0 | 19.3 | 0.00 | 0.00 | 0.00 | 82 | 1007.9 |
| 20260506015404 | 2 | 194 | 0.0 | 19.3 | 0.00 | 0.00 | 0.00 | 81 | 1008.0 |
| 20260506013316 | 3 | 194 | 0.0 | 19.3 | 0.00 | 0.00 | 0.00 | 80 | 1007.5 |
| 20260506012816 | 3 | 194 | 0.0 | 19.3 | 0.00 | 0.00 | 0.00 | 80 | 1007.4 |
| 20260506012315 | 3 | 193 | 0.0 | 19.3 | 0.00 | 0.00 | 0.00 | 79 | 1007.4 |
| 20260506011815 | 3 | 204 | 1.6 | 19.3 | 0.00 | 0.00 | 0.00 | 79 | 1007.2 |
| 20260506011314 | 3 | 215 | 0.0 | 19.3 | 0.00 | 0.00 | 0.00 | 78 | 1007.3 |
| 20260506010814 | 3 | 213 | 0.0 | 19.3 | 0.00 | 0.00 | 0.00 | 78 | 1007.2 |
| 20260506005759 | 3 | 214 | 0.0 | 19.3 | 0.00 | 0.00 | 0.00 | 76 | 1006.9 |
| 20260506005259 | 3 | 224 | 1.6 | 19.3 | 0.00 | 0.00 | 0.00 | 76 | 1007.1 |
| 20260506004758 | 3 | 235 | 1.6 | 19.3 | 0.00 | 0.00 | 0.00 | 75 | 1007.0 |
| 20260506004258 | 4 | 209 | 1.6 | 19.3 | 0.00 | 0.00 | 0.00 | 74 | 1006.9 |
| 20260506003758 | 4 | 210 | 3.2 | 19.3 | 0.00 | 0.00 | 0.00 | 73 | 1006.9 |
| 20260506002742 | 5 | 214 | 1.6 | 19.3 | 0.00 | 0.00 | 0.00 | 72 | 1006.9 |
| 20260506002242 | 5 | 214 | 4.8 | 19.3 | 0.00 | 0.00 | 0.00 | 71 | 1006.8 |
| 20260506001741 | 5 | 211 | 1.6 | 19.3 | 0.00 | 0.00 | 0.00 | 71 | 1006.9 |
| 20260506001240 | 5 | 222 | 1.6 | 19.3 | 0.00 | 0.00 | 0.00 | 69 | 1006.8 |
| 20260506000739 | 6 | 243 | 1.6 | 19.3 | 0.00 | 0.00 | 0.00 | 67 | 1006.8 |
| 20260505235722 | 6 | 263 | 0.0 | 19.3 | 0.00 | 0.00 | 0.00 | 62 | 1006.8 |
| 20260505234706 | 6 | 260 | 0.0 | 19.3 | 0.00 | 0.00 | 0.00 | 64 | 1006.8 |
| 20260505234206 | 6 | 260 | 0.0 | 19.3 | 0.00 | 0.00 | 0.00 | 62 | 1006.9 |
| 20260505233706 | 6 | 260 | 0.0 | 19.3 | 0.00 | 0.00 | 0.00 | 61 | 1006.8 |
| 20260505233206 | 6 | 260 | 0.0 | 19.3 | 0.00 | 0.00 | 0.00 | 62 | 1006.9 |
| 20260505232706 | 6 | 239 | 0.0 | 19.3 | 0.00 | 0.00 | 0.00 | 63 | 1006.7 |
| 20260505232206 | 6 | 230 | 0.0 | 19.3 | 0.00 | 0.00 | 0.00 | 63 | 1006.8 |
| 20260505231706 | 6 | 255 | 0.0 | 19.3 | 0.00 | 0.00 | 0.00 | 62 | 1006.8 |
| 20260505230650 | 7 | 263 | 1.6 | 19.3 | 0.00 | 0.00 | 0.00 | 60 | 1006.8 |
| 20260505230149 | 7 | 237 | 3.2 | 19.3 | 0.00 | 0.00 | 0.00 | 59 | 1006.8 |
| 20260505225649 | 7 | 241 | 1.6 | 19.3 | 0.00 | 0.00 | 0.00 | 60 | 1006.8 |
| 20260505225149 | 6 | 220 | 1.6 | 19.3 | 0.00 | 0.00 | 0.00 | 61 | 1006.9 |
| 20260505224649 | 7 | 210 | 4.8 | 19.3 | 0.00 | 0.00 | 0.00 | 59 | 1006.9 |
| 20260505224149 | 7 | 242 | 1.6 | 19.3 | 0.00 | 0.00 | 0.00 | 59 | 1006.8 |
| 20260505223649 | 7 | 232 | 1.6 | 19.3 | 0.00 | 0.00 | 0.00 | 59 | 1006.8 |
| 20260505223149 | 7 | 228 | 3.2 | 19.3 | 0.00 | 0.00 | 0.00 | 59 | 1006.2 |
| 20260505222649 | 7 | 214 | 4.8 | 19.3 | 0.00 | 0.00 | 0.00 | 57 | 1006.6 |
| 20260505222149 | 7 | 215 | 4.8 | 19.3 | 0.00 | 0.00 | 0.00 | 58 | 1006.7 |
| 20260505221649 | 6 | 202 | 8.0 | 19.3 | 0.00 | 0.00 | 0.00 | 59 | 1006.7 |
| 20260505221149 | 6 | 207 | 6.4 | 19.3 | 0.00 | 0.00 | 0.00 | 59 | 1006.8 |
| 20260505220649 | 7 | 210 | 4.8 | 19.3 | 0.00 | 0.00 | 0.00 | 58 | 1006.8 |
| 20260505215632 | 7 | 240 | 4.8 | 19.3 | 0.00 | 0.00 | 0.00 | 58 | 1006.7 |
| 20260505215131 | 7 | 239 | 3.2 | 19.3 | 0.00 | 0.00 | 0.00 | 59 | 1006.6 |
| 20260505214630 | 7 | 239 | 1.6 | 19.3 | 0.00 | 0.00 | 0.00 | 59 | 1006.7 |
| 20260505214129 | 7 | 203 | 11.3 | 19.3 | 0.00 | 0.00 | 0.00 | 57 | 1006.5 |
| 20260505213628 | 8 | 223 | 4.8 | 19.3 | 0.00 | 0.00 | 0.00 | 57 | 1006.5 |
| 20260505213127 | 8 | 220 | 3.2 | 19.3 | 0.00 | 0.00 | 0.00 | 59 | 1006.3 |
| 20260505212627 | 8 | 280 | 3.2 | 19.3 | 0.00 | 0.00 | 0.00 | 55 | 1006.4 |
| 20260505212127 | 8 | 228 | 4.8 | 19.3 | 0.00 | 0.00 | 0.00 | 55 | 1005.8 |
| 20260505211627 | 8 | 244 | 1.6 | 19.3 | 0.00 | 0.00 | 0.00 | 57 | 1005.8 |
| 20260505211127 | 8 | 247 | 3.2 | 19.3 | 0.00 | 0.00 | 0.00 | 56 | 1005.9 |
| 20260505210626 | 7 | 234 | 3.2 | 19.3 | 0.00 | 0.00 | 0.00 | 59 | 1005.8 |
| 20260505205611 | 8 | 220 | 6.4 | 19.3 | 0.00 | 0.00 | 0.00 | 56 | 1005.7 |
| 20260505204554 | 8 | 236 | 3.2 | 19.3 | 0.00 | 0.00 | 0.00 | 54 | 1005.8 |
| 20260505204054 | 8 | 244 | 4.8 | 19.3 | 0.00 | 0.00 | 0.00 | 55 | 1005.4 |
| 20260505203553 | 8 | 243 | 4.8 | 19.3 | 0.00 | 0.00 | 0.00 | 54 | 1005.8 |
| 20260505203052 | 8 | 283 | 1.6 | 19.3 | 0.00 | 0.00 | 0.00 | 54 | 1005.8 |
| 20260505202552 | 8 | 238 | 1.6 | 19.3 | 0.00 | 0.00 | 0.00 | 57 | 1006.1 |
| 20260505201536 | 8 | 293 | 6.4 | 19.3 | 0.00 | 0.00 | 0.00 | 54 | 1006.0 |
| 20260505201036 | 8 | 279 | 6.4 | 19.3 | 0.00 | 0.00 | 0.00 | 55 | 1005.9 |
| 20260505200536 | 8 | 280 | 6.4 | 19.3 | 0.00 | 0.00 | 0.00 | 55 | 1005.8 |
| 20260505200036 | 8 | 281 | 3.2 | 19.3 | 0.00 | 0.00 | 0.00 | 55 | 1005.4 |
| 20260505195020 | 8 | 266 | 6.4 | 19.3 | 0.00 | 0.00 | 0.00 | 52 | 1005.4 |
| 20260505194519 | 8 | 291 | 3.2 | 20.9 | 0.00 | 0.00 | 0.00 | 54 | 1005.5 |
| 20260505194018 | 7 | 304 | 12.9 | 24.1 | 0.00 | 0.00 | 0.00 | 55 | 1005.4 |
| 20260505193002 | 8 | 276 | 8.0 | 19.3 | 0.00 | 0.00 | 0.00 | 54 | 1005.4 |
| 20260505192502 | 8 | 278 | 6.4 | 24.1 | 0.00 | 0.00 | 0.00 | 53 | 1005.1 |
| 20260505192002 | 7 | 325 | 14.5 | 24.1 | 0.00 | 0.00 | 0.00 | 53 | 1005.2 |
| 20260505191502 | 8 | 308 | 8.0 | 27.4 | 0.00 | 0.00 | 0.00 | 53 | 1004.9 |
| 20260505191001 | 8 | 313 | 11.3 | 27.4 | 0.00 | 0.00 | 0.00 | 52 | 1004.9 |
| 20260505190501 | 8 | 304 | 12.9 | 27.4 | 0.00 | 0.00 | 0.00 | 50 | 1005.1 |
| 20260505190001 | 8 | 303 | 14.5 | 30.6 | 0.00 | 0.00 | 0.00 | 49 | 1004.7 |
| 20260505185501 | 8 | 312 | 11.3 | 30.6 | 0.00 | 0.00 | 0.00 | 49 | 1004.8 |
| 20260505185000 | 8 | 309 | 9.7 | 27.4 | 0.00 | 0.00 | 0.00 | 50 | 1004.5 |
| 20260505184459 | 7 | 309 | 14.5 | 32.2 | 0.00 | 0.00 | 0.00 | 51 | 1004.6 |
| 20260505183959 | 8 | 312 | 11.3 | 32.2 | 0.00 | 0.00 | 0.00 | 49 | 1004.4 |
| 20260505183459 | 8 | 302 | 16.1 | 27.4 | 0.00 | 0.00 | 0.00 | 49 | 1004.7 |
| 20260505182959 | 8 | 307 | 16.1 | 27.4 | 0.00 | 0.00 | 0.00 | 51 | 1004.5 |
| 20260505182459 | 8 | 326 | 12.9 | 25.7 | 0.00 | 0.00 | 0.00 | 52 | 1004.7 |
| 20260505181443 | 7 | 316 | 12.9 | 32.2 | 0.00 | 0.00 | 0.00 | 56 | 1004.6 |
| 20260505180942 | 7 | 308 | 16.1 | 27.4 | 0.00 | 0.00 | 0.00 | 51 | 1004.5 |
| 20260505180441 | 8 | 314 | 16.1 | 25.7 | 0.00 | 0.00 | 0.00 | 51 | 1003.6 |
| 20260505175940 | 8 | 317 | 14.5 | 32.2 | 0.00 | 0.00 | 0.00 | 53 | 1004.2 |
| 20260505174924 | 7 | 328 | 14.5 | 33.8 | 0.00 | 0.00 | 0.00 | 54 | 1003.4 |
| 20260505173909 | 7 | 332 | 12.9 | 33.8 | 0.00 | 0.00 | 0.00 | 55 | 1003.2 |
| 20260505173408 | 7 | 314 | 16.1 | 27.4 | 0.00 | 0.00 | 0.00 | 55 | 1004.1 |
| 20260505172907 | 7 | 314 | 12.9 | 27.4 | 0.00 | 0.00 | 0.00 | 57 | 1004.1 |
| 20260505172407 | 7 | 314 | 16.1 | 33.8 | 0.00 | 0.00 | 0.00 | 56 | 1003.9 |
| 20260505171350 | 7 | 322 | 16.1 | 27.4 | 0.00 | 0.00 | 0.00 | 54 | 1003.2 |
| 20260505170334 | 7 | 303 | 11.3 | 32.2 | 0.00 | 0.00 | 0.00 | 58 | 1004.2 |
| 20260505165833 | 7 | 301 | 9.7 | 32.2 | 0.00 | 0.00 | 0.00 | 59 | 1004.2 |
| 20260505165333 | 7 | 322 | 11.3 | 33.8 | 0.00 | 0.00 | 0.00 | 59 | 1004.2 |
| 20260505164832 | 7 | 329 | 12.9 | 33.8 | 0.00 | 0.00 | 0.00 | 59 | 1004.0 |
| 20260505164331 | 7 | 338 | 14.5 | 32.2 | 0.00 | 0.00 | 0.00 | 61 | 1003.4 |
| 20260505163831 | 6 | 326 | 16.1 | 30.6 | 0.00 | 0.00 | 0.00 | 61 | 1004.3 |
| 20260505163330 | 7 | 302 | 11.3 | 30.6 | 0.00 | 0.00 | 0.00 | 61 | 1004.0 |
| 20260505162830 | 7 | 317 | 14.5 | 33.8 | 0.00 | 0.00 | 0.00 | 62 | 1004.1 |
| 20260505162329 | 7 | 310 | 9.7 | 33.8 | 0.00 | 0.00 | 0.00 | 64 | 1004.0 |
| 20260505161829 | 6 | 298 | 16.1 | 32.2 | 0.00 | 0.00 | 0.00 | 63 | 1004.2 |
| 20260505161328 | 7 | 327 | 17.7 | 24.1 | 0.00 | 0.00 | 0.00 | 62 | 1004.2 |
| 20260505160313 | 7 | 284 | 11.3 | 25.7 | 0.00 | 0.00 | 0.00 | 67 | 1004.2 |
| 20260505153257 | 7 | 330 | 11.3 | 32.2 | 0.00 | 0.00 | 0.00 | 63 | 1003.4 |
| 20260505152240 | 6 | 309 | 19.3 | 30.6 | 0.00 | 0.00 | 0.00 | 62 | 1002.9 |
| 20260505151739 | 6 | 322 | 20.9 | 30.6 | 0.00 | 0.00 | 0.00 | 64 | 1003.1 |
| 20260505151239 | 6 | 303 | 14.5 | 25.7 | 0.00 | 0.00 | 0.00 | 70 | 1003.0 |
| 20260505150738 | 6 | 326 | 12.9 | 24.1 | 0.00 | 0.00 | 0.00 | 70 | 1002.9 |
| 20260505150237 | 6 | 316 | 12.9 | 24.1 | 0.00 | 0.00 | 0.00 | 68 | 1002.6 |
| 20260505140145 | 5 | 323 | 9.7 | 22.5 | 0.00 | 0.00 | 0.00 | 70 | 1000.8 |
| 20260505124555 | 5 | 332 | 14.5 | 22.5 | 0.00 | 0.00 | 0.00 | 73 | 999.9 |
| 20260505123540 | 6 | 330 | 9.7 | 22.5 | 0.00 | 0.00 | 0.00 | 75 | 999.6 |
| 20260505122525 | 5 | 337 | 12.9 | 22.5 | 0.00 | 0.00 | 0.00 | 76 | 999.3 |
| 20260505122024 | 5 | 335 | 14.5 | 24.1 | 0.00 | 0.00 | 0.00 | 76 | 999.1 |
| 20260505121524 | 5 | 343 | 11.3 | 24.1 | 0.00 | 0.00 | 0.00 | 76 | 999.1 |
| 20260505120508 | 5 | 334 | 14.5 | 25.7 | 0.00 | 0.00 | 0.00 | 76 | 999.1 |
| 20260505120008 | 5 | 337 | 11.3 | 20.9 | 0.00 | 0.00 | 0.00 | 76 | 999.1 |
| 20260505115508 | 6 | 329 | 9.7 | 20.9 | 0.00 | 0.00 | 0.00 | 76 | 998.9 |
| 20260505114452 | 5 | 322 | 11.3 | 22.5 | 0.00 | 0.00 | 0.00 | 76 | 998.8 |
| 20260505113952 | 5 | 315 | 11.3 | 22.5 | 0.00 | 0.00 | 0.00 | 77 | 997.7 |
| 20260505113452 | 5 | 327 | 11.3 | 22.5 | 0.00 | 0.00 | 0.00 | 77 | 997.9 |
| 20260505112951 | 5 | 325 | 11.3 | 20.9 | 0.00 | 0.00 | 0.00 | 77 | 997.6 |
| 20260505112451 | 5 | 337 | 9.7 | 20.9 | 0.00 | 0.00 | 0.00 | 78 | 997.2 |
| 20260505111950 | 5 | 340 | 9.7 | 20.9 | 0.00 | 0.00 | 0.00 | 78 | 997.1 |
| 20260505111449 | 5 | 334 | 11.3 | 20.9 | 0.00 | 0.00 | 0.00 | 78 | 997.0 |
| 20260505110949 | 5 | 335 | 11.3 | 20.9 | 0.00 | 0.00 | 0.00 | 78 | 996.8 |
| 20260505101930 | 5 | 323 | 8.0 | 24.1 | 0.00 | 0.00 | 0.00 | 79 | 996.2 |
| 20260505100914 | 6 | 324 | 9.7 | 24.1 | 0.00 | 0.00 | 0.00 | 78 | 996.2 |
| 20260505095859 | 6 | 336 | 9.7 | 20.9 | 0.00 | 0.00 | 0.00 | 79 | 995.5 |
| 20260505095358 | 6 | 332 | 12.9 | 20.9 | 0.00 | 0.00 | 0.00 | 79 | 995.2 |
| 20260505094857 | 5 | 331 | 11.3 | 20.9 | 0.00 | 0.00 | 0.00 | 80 | 994.9 |
| 20260505094356 | 5 | 335 | 9.7 | 20.9 | 0.00 | 0.00 | 0.00 | 80 | 994.6 |
| 20260505093855 | 5 | 337 | 11.3 | 20.9 | 0.00 | 0.00 | 0.00 | 80 | 994.4 |
| 20260505093355 | 5 | 333 | 11.3 | 22.5 | 0.00 | 0.00 | 0.00 | 80 | 994.3 |
| 20260505092855 | 5 | 347 | 9.7 | 22.5 | 0.00 | 0.00 | 0.00 | 81 | 994.5 |
| 20260505092354 | 5 | 334 | 11.3 | 22.5 | 0.00 | 0.00 | 0.00 | 81 | 994.7 |
| 20260505091853 | 5 | 343 | 8.0 | 22.5 | 0.00 | 0.00 | 0.00 | 82 | 994.5 |
| 20260505090837 | 5 | 339 | 11.3 | 22.5 | 0.00 | 0.00 | 0.00 | 82 | 994.3 |
| 20260505090337 | 5 | 346 | 9.7 | 24.1 | 0.00 | 0.00 | 0.00 | 82 | 994.4 |
| 20260505085836 | 5 | 340 | 12.9 | 24.1 | 0.00 | 0.00 | 0.00 | 82 | 994.1 |
| 20260505085335 | 5 | 348 | 9.7 | 25.7 | 0.00 | 0.00 | 0.00 | 83 | 993.9 |
| 20260505084835 | 5 | 344 | 11.3 | 25.7 | 0.00 | 0.00 | 0.00 | 84 | 994.1 |
| 20260505084335 | 5 | 339 | 11.3 | 25.7 | 0.00 | 0.00 | 0.00 | 84 | 994.1 |
| 20260505083835 | 5 | 341 | 11.3 | 25.7 | 0.00 | 0.00 | 0.00 | 85 | 993.9 |
| 20260505083334 | 5 | 333 | 12.9 | 25.7 | 0.00 | 0.00 | 0.00 | 86 | 993.9 |
| 20260505082319 | 5 | 337 | 8.0 | 20.9 | 0.00 | 0.00 | 0.00 | 89 | 993.9 |
| 20260505081818 | 5 | 337 | 6.4 | 20.9 | 0.00 | 0.00 | 0.00 | 89 | 993.7 |
| 20260505080802 | 5 | 338 | 11.3 | 20.9 | 0.00 | 0.00 | 0.00 | 89 | 993.8 |
| 20260505080303 | 6 | 342 | 9.7 | 20.9 | 0.00 | 0.00 | 0.00 | 89 | 993.6 |
| 20260505075802 | 6 | 343 | 6.4 | 20.9 | 0.00 | 0.00 | 0.00 | 88 | 993.6 |